CW1032 Weather Reports


time (UTC)temp
C
wind
direction
speed
KPH
gust
KPH
rain 1hr
cm
rain 24hr
cm
rain mn
cm
humidity
%
barometer
mb
20260505175551 27 262 6.4 24.1 0.00 0.00 0.00 38 1010.2
20260505175051 27 308 8.0 24.1 0.00 0.00 0.00 37 1010.2
20260505174554 27 310 4.8 24.1 0.00 0.00 0.00 37 1010.3
20260505174050 27 90 8.0 24.1 0.00 0.00 0.00 38 1010.3
20260505173549 28 309 3.2 11.3 0.00 0.00 0.00 39 1010.3
20260505173057 27 305 1.6 16.1 0.00 0.00 0.00 40 1010.3
20260505172552 27 35 4.8 16.1 0.00 0.00 0.00 41 1010.4
20260505172050 27 263 6.4 16.1 0.00 0.00 0.00 40 1010.6
20260505171558 27 296 3.2 16.1 0.00 0.00 0.00 40 1010.5
20260505171050 27 129 4.8 16.1 0.00 0.00 0.00 42 1010.5
20260505170550 27 58 6.4 16.1 0.00 0.00 0.00 40 1010.5
20260505170049 27 117 4.8 16.1 0.00 0.00 0.00 42 1010.7
20260505165553 27 176 4.8 12.9 0.00 0.00 0.00 40 1010.6
20260505165050 27 279 3.2 12.9 0.00 0.00 0.00 40 1010.7
20260505164552 27 312 3.2 17.7 0.00 0.00 0.00 37 1010.8
20260505164050 27 17 0.0 17.7 0.00 0.00 0.00 42 1010.8
20260505163549 27 163 3.2 16.1 0.00 0.00 0.00 40 1010.9
20260505163051 27 174 8.0 16.1 0.00 0.00 0.00 41 1010.9
20260505162549 27 168 1.6 9.7 0.00 0.00 0.00 43 1010.9
20260505162049 27 211 1.6 17.7 0.00 0.00 0.00 44 1011.0
20260505161612 27 180 3.2 17.7 0.00 0.00 0.00 46 1011.0
20260505161050 27 307 3.2 9.7 0.00 0.00 0.00 43 1011.0
20260505160550 27 307 1.6 14.5 0.00 0.00 0.00 43 1011.1
20260505153050 26 255 3.2 12.9 0.00 0.00 0.00 46 1011.2
20260505152549 26 314 3.2 12.9 0.00 0.00 0.00 45 1011.3
20260505152049 26 0 3.2 11.3 0.00 0.00 0.00 46 1011.3
20260505151609 26 285 1.6 12.9 0.00 0.00 0.00 47 1011.3
20260505151141 26 151 3.2 12.9 0.00 0.00 0.00 47 1011.4
20260505150550 25 308 1.6 14.5 0.00 0.00 0.00 47 1011.2
20260505140550 22 179 3.2 9.7 0.00 0.00 0.00 55 1011.4
20260505124554 18 321 0.0 8.0 0.00 0.00 0.00 62 1011.9
20260505124050 18 243 0.0 8.0 0.00 0.00 0.00 63 1011.9
20260505123554 17 173 0.0 8.0 0.00 0.00 0.00 63 1011.9
20260505123053 17 135 0.0 6.4 0.00 0.00 0.00 64 1012.0
20260505122549 17 0 0.0 4.8 0.00 0.00 0.00 64 1011.9
20260505122049 17 118 0.0 8.0 0.00 0.00 0.00 66 1012.0
20260505121554 17 129 0.0 8.0 0.00 0.00 0.00 66 1011.9
20260505121049 16 144 0.0 6.4 0.00 0.00 0.00 67 1011.9
20260505120549 16 0 0.0 8.0 0.00 0.00 0.00 68 1011.9
20260505120111 16 0 3.2 8.0 0.00 0.00 0.00 68 1011.9
20260505115549 16 0 1.6 6.4 0.00 0.00 0.00 69 1011.9
20260505115051 16 304 0.0 3.2 0.00 0.00 0.00 70 1011.7
20260505114552 15 0 0.0 4.8 0.00 0.00 0.00 70 1011.8
20260505114051 15 0 0.0 6.4 0.00 0.00 0.00 70 1011.7
20260505113550 15 0 0.0 6.4 0.00 0.00 0.00 71 1011.6
20260505113050 15 130 0.0 4.8 0.00 0.00 0.00 72 1011.7
20260505112549 15 286 1.6 9.7 0.00 0.00 0.00 72 1011.6
20260505112049 15 144 0.0 9.7 0.00 0.00 0.00 72 1011.6
20260505111550 15 0 1.6 9.7 0.00 0.00 0.00 72 1011.6
20260505111049 14 160 0.0 6.4 0.00 0.00 0.00 73 1011.4
20260505110549 14 311 0.0 3.2 0.00 0.00 0.00 74 1011.3
20260505102049 12 0 0.0 0.0 0.00 0.00 0.00 79 1010.9
20260505101555 12 0 0.0 0.0 0.00 0.00 0.00 79 1010.8
20260505101049 12 0 0.0 0.0 0.00 0.00 0.00 79 1010.8
20260505100549 12 0 0.0 0.0 0.00 0.00 0.00 79 1010.7
20260505100049 12 0 0.0 0.0 0.00 0.00 0.00 79 1010.7
20260505095549 12 0 0.0 0.0 0.00 0.00 0.00 78 1010.6
20260505095049 12 0 0.0 0.0 0.00 0.00 0.00 79 1010.6
20260505094551 12 0 0.0 0.0 0.00 0.00 0.00 79 1010.5
20260505094051 12 0 0.0 1.6 0.00 0.00 0.00 79 1010.4
20260505093553 11 0 0.0 1.6 0.00 0.00 0.00 80 1010.6
20260505093055 11 0 0.0 0.0 0.00 0.00 0.00 80 1010.5
20260505092550 11 0 0.0 0.0 0.00 0.00 0.00 81 1010.5
20260505092050 11 0 0.0 0.0 0.00 0.00 0.00 82 1010.5
20260505091553 11 0 0.0 0.0 0.00 0.00 0.00 82 1010.5
20260505091049 11 0 0.0 0.0 0.00 0.00 0.00 82 1010.6
20260505090550 11 0 0.0 0.0 0.00 0.00 0.00 82 1010.4
20260505090053 11 0 0.0 0.0 0.00 0.00 0.00 82 1010.5
20260505085552 11 0 0.0 0.0 0.00 0.00 0.00 82 1010.5
20260505085050 11 0 0.0 0.0 0.00 0.00 0.00 82 1010.6
20260505084550 11 0 0.0 0.0 0.00 0.00 0.00 82 1010.5
20260505084050 11 0 0.0 0.0 0.00 0.00 0.00 82 1010.5
20260505083549 11 0 0.0 0.0 0.00 0.00 0.00 82 1010.5
20260505083056 11 0 0.0 0.0 0.00 0.00 0.00 82 1010.6
20260505082550 11 0 0.0 0.0 0.00 0.00 0.00 82 1010.6
20260505082050 11 0 0.0 0.0 0.00 0.00 0.00 82 1010.6
20260505081600 11 0 0.0 0.0 0.00 0.00 0.00 82 1010.6
20260505081049 11 0 0.0 0.0 0.00 0.00 0.00 82 1010.6
20260505080549 11 0 0.0 0.0 0.00 0.00 0.00 82 1010.6
20260505080053 11 0 0.0 0.0 0.00 0.00 0.00 82 1010.6
20260505075550 11 0 0.0 0.0 0.00 0.00 0.00 82 1010.6
20260505075050 11 0 0.0 0.0 0.00 0.00 0.00 82 1010.6
20260505074558 11 0 0.0 0.0 0.00 0.00 0.00 82 1010.6
20260505074051 11 0 0.0 0.0 0.00 0.00 0.00 81 1010.6
20260505073549 11 0 0.0 0.0 0.00 0.00 0.00 81 1010.6
20260505073105 11 0 0.0 0.0 0.00 0.00 0.00 81 1010.6
20260505072551 11 0 0.0 0.0 0.00 0.00 0.00 80 1010.6
20260505072050 11 0 0.0 0.0 0.00 0.00 0.00 80 1010.6
20260505071558 12 0 0.0 0.0 0.00 0.00 0.00 80 1010.4
20260505071050 12 0 0.0 0.0 0.00 0.00 0.00 79 1010.4
20260505070550 12 0 0.0 0.0 0.00 0.00 0.00 79 1010.4
20260505070054 12 0 0.0 0.0 0.00 0.00 0.00 79 1010.4
20260505065550 12 0 0.0 0.0 0.00 0.00 0.00 78 1010.3
20260505065049 12 0 0.0 0.0 0.00 0.00 0.00 78 1010.2
20260505064552 12 0 0.0 0.0 0.00 0.00 0.00 78 1010.4
20260505064049 12 0 0.0 0.0 0.00 0.00 0.00 78 1010.4
20260505063549 12 0 0.0 0.0 0.00 0.00 0.00 78 1010.3
20260505063052 12 0 0.0 0.0 0.00 0.00 0.00 77 1010.4
20260505062551 12 0 0.0 0.0 0.00 0.00 0.00 77 1010.3
20260505062049 12 0 0.0 0.0 0.00 0.00 0.00 77 1010.3
20260505061558 12 0 0.0 0.0 0.00 0.00 0.00 77 1010.2
20260505061049 13 0 0.0 0.0 0.00 0.00 0.00 77 1010.4
20260505060549 12 0 0.0 0.0 0.00 0.00 0.00 76 1010.5
20260505060056 13 0 0.0 0.0 0.00 0.00 0.00 77 1010.5
20260505055549 12 0 0.0 0.0 0.00 0.00 0.00 76 1010.4
20260505055049 12 0 0.0 0.0 0.00 0.00 0.00 77 1010.4
20260505054624 12 0 0.0 0.0 0.00 0.00 0.00 76 1010.4
20260505054051 12 0 0.0 0.0 0.00 0.00 0.00 77 1010.4
20260505053550 12 0 0.0 0.0 0.00 0.00 0.00 76 1010.4
20260505053107 12 0 0.0 0.0 0.00 0.00 0.00 76 1010.6
20260505052551 12 0 0.0 0.0 0.00 0.00 0.00 76 1010.5
20260505052049 12 0 0.0 0.0 0.00 0.00 0.00 76 1010.4
20260505051553 12 0 0.0 0.0 0.00 0.00 0.00 75 1010.6
20260505051050 12 0 0.0 0.0 0.00 0.00 0.00 76 1010.5
20260505050550 12 0 0.0 0.0 0.00 0.00 0.00 75 1010.5
20260505041601 13 0 0.0 0.0 0.00 0.00 0.00 72 1010.4
20260505041050 13 0 0.0 1.6 0.00 0.00 0.00 71 1010.4
20260505040550 13 0 0.0 1.6 0.00 0.00 0.00 71 1010.4
20260505040057 13 324 0.0 0.0 0.00 0.00 0.00 71 1010.4
20260505035549 13 0 0.0 0.0 0.00 0.00 0.00 71 1010.3
20260505035049 13 0 0.0 0.0 0.00 0.00 0.00 70 1010.3
20260505034555 13 0 0.0 0.0 0.00 0.00 0.00 71 1010.3
20260505034050 14 0 0.0 0.0 0.00 0.00 0.00 70 1010.3
20260505033549 14 0 0.0 0.0 0.00 0.00 0.00 69 1010.4
20260505033055 14 0 0.0 0.0 0.00 0.00 0.00 69 1010.3
20260505032549 15 0 0.0 0.0 0.00 0.00 0.00 68 1010.4
20260505032048 15 0 0.0 0.0 0.00 0.00 0.00 67 1010.3
20260505031608 15 0 0.0 0.0 0.00 0.00 0.00 67 1010.3
20260505031049 15 0 0.0 0.0 0.00 0.00 0.00 67 1010.2
20260505030549 15 0 0.0 0.0 0.00 0.00 0.00 67 1010.3
20260505030050 15 324 0.0 0.0 0.00 0.00 0.00 67 1010.3
20260505025550 15 0 0.0 0.0 0.00 0.00 0.00 67 1010.2
20260505025050 15 0 0.0 0.0 0.00 0.00 0.00 67 1010.3
20260505024551 15 0 0.0 0.0 0.00 0.00 0.00 67 1010.4
20260505024049 15 0 0.0 0.0 0.00 0.00 0.00 67 1010.3
20260505023552 15 0 0.0 0.0 0.00 0.00 0.00 66 1010.3
20260505023106 15 0 0.0 0.0 0.00 0.00 0.00 67 1010.3
20260505022549 15 0 0.0 0.0 0.00 0.00 0.00 65 1010.3
20260505022049 15 0 0.0 0.0 0.00 0.00 0.00 65 1010.2
20260505021552 16 0 0.0 0.0 0.00 0.00 0.00 64 1010.2
20260505021051 16 0 0.0 1.6 0.00 0.00 0.00 63 1010.3
20260505020552 16 0 0.0 1.6 0.00 0.00 0.00 63 1010.4
20260505020049 16 0 0.0 1.6 0.00 0.00 0.00 61 1010.4
20260505015549 16 0 0.0 1.6 0.00 0.00 0.00 61 1010.4
20260505015049 16 0 0.0 1.6 0.00 0.00 0.00 61 1010.3
20260505014556 16 0 0.0 1.6 0.00 0.00 0.00 61 1010.1
20260505014048 16 0 0.0 3.2 0.00 0.00 0.00 60 1010.0
20260505013548 16 324 0.0 3.2 0.00 0.00 0.00 60 1010.0
20260505013107 16 0 0.0 0.0 0.00 0.00 0.00 61 1010.1
20260505012550 16 0 0.0 0.0 0.00 0.00 0.00 61 1010.0
20260505012050 16 0 0.0 0.0 0.00 0.00 0.00 61 1010.0
20260505011552 16 0 0.0 0.0 0.00 0.00 0.00 61 1009.8
20260505011049 16 0 0.0 0.0 0.00 0.00 0.00 61 1009.7
20260505010549 16 0 0.0 0.0 0.00 0.00 0.00 60 1009.8
20260505010053 17 0 0.0 0.0 0.00 0.00 0.00 60 1009.8
20260505005549 17 0 0.0 0.0 0.00 0.00 0.00 59 1009.7
20260505005050 17 0 0.0 0.0 0.00 0.00 0.00 58 1009.7
20260505004558 17 0 0.0 0.0 0.00 0.00 0.00 58 1009.7
20260505004049 17 0 0.0 0.0 0.00 0.00 0.00 57 1009.7
20260505003550 17 0 0.0 0.0 0.00 0.00 0.00 56 1009.7
20260505003054 18 0 0.0 0.0 0.00 0.00 0.00 55 1009.7
20260505002550 18 0 0.0 1.6 0.00 0.00 0.00 54 1009.7
20260505002050 18 0 0.0 1.6 0.00 0.00 0.00 53 1009.7
20260505001555 18 330 0.0 1.6 0.00 0.00 0.00 53 1009.7
20260505001050 18 0 0.0 4.8 0.00 0.00 0.00 52 1009.6
20260505000549 18 0 0.0 6.4 0.00 0.00 0.00 52 1009.5
20260505000107 19 311 0.0 6.4 0.00 0.00 0.00 51 1009.5
20260504235550 19 0 0.0 4.8 0.00 0.00 0.00 51 1009.5
20260504235050 19 0 0.0 6.4 0.00 0.00 0.00 51 1009.5
20260504234550 20 331 0.0 9.7 0.00 0.00 0.00 50 1009.5
20260504234049 20 320 3.2 9.7 0.00 0.00 0.00 50 1009.5
20260504233550 20 179 0.0 9.7 0.00 0.00 0.00 50 1009.5
20260504233056 20 182 0.0 8.0 0.00 0.00 0.00 49 1009.5
20260504232550 20 337 0.0 4.8 0.00 0.00 0.00 49 1009.5
20260504232049 20 105 0.0 9.7 0.00 0.00 0.00 48 1009.5
20260504231554 21 310 1.6 11.3 0.00 0.00 0.00 48 1009.4
20260504231050 21 149 3.2 11.3 0.00 0.00 0.00 48 1009.5
20260504230551 21 30 1.6 6.4 0.00 0.00 0.00 47 1009.6
20260504230106 21 324 0.0 6.4 0.00 0.00 0.00 46 1009.6
20260504225549 21 281 1.6 9.7 0.00 0.00 0.00 46 1009.5
20260504225049 21 89 3.2 9.7 0.00 0.00 0.00 46 1009.4
20260504224555 21 210 1.6 9.7 0.00 0.00 0.00 45 1009.5
20260504224051 22 250 0.0 4.8 0.00 0.00 0.00 46 1009.4
20260504223550 22 293 0.0 3.2 0.00 0.00 0.00 45 1009.3
20260504223103 22 0 0.0 12.9 0.00 0.00 0.00 45 1009.3
20260504222549 22 293 0.0 12.9 0.00 0.00 0.00 42 1009.2
20260504222050 22 146 3.2 14.5 0.00 0.00 0.00 39 1009.3
20260504221603 23 292 4.8 14.5 0.00 0.00 0.00 39 1009.3
20260504221049 23 73 4.8 16.1 0.00 0.00 0.00 38 1009.3
20260504220551 24 152 1.6 16.1 0.00 0.00 0.00 39 1009.3
20260504220100 24 19 4.8 16.1 0.00 0.00 0.00 38 1009.2
20260504215553 24 0 1.6 17.7 0.00 0.00 0.00 38 1009.3
20260504215053 24 150 3.2 17.7 0.00 0.00 0.00 38 1009.3
20260504214558 24 314 1.6 9.7 0.00 0.00 0.00 38 1009.5
20260504214050 24 306 3.2 9.7 0.00 0.00 0.00 38 1009.4
20260504213550 24 158 0.0 12.9 0.00 0.00 0.00 40 1009.4
20260504213053 24 0 3.2 14.5 0.00 0.00 0.00 39 1009.4
20260504212550 24 297 3.2 14.5 0.00 0.00 0.00 39 1009.5
20260504212053 24 298 4.8 14.5 0.00 0.00 0.00 39 1009.6
20260504211553 24 286 4.8 12.9 0.00 0.00 0.00 37 1009.6
20260504211049 24 296 3.2 14.5 0.00 0.00 0.00 39 1009.6
20260504210549 24 111 3.2 14.5 0.00 0.00 0.00 39 1009.4
20260504210056 24 127 1.6 14.5 0.00 0.00 0.00 41 1009.5
20260504205550 24 106 4.8 14.5 0.00 0.00 0.00 38 1009.4
20260504205049 24 318 3.2 11.3 0.00 0.00 0.00 38 1009.4
20260504204600 24 263 1.6 17.7 0.00 0.00 0.00 39 1009.5
20260504204049 24 322 3.2 17.7 0.00 0.00 0.00 38 1009.5
20260504203551 23 314 3.2 11.3 0.00 0.00 0.00 41 1009.6
20260504203102 23 193 3.2 17.7 0.00 0.00 0.00 39 1009.7
20260504202549 23 128 4.8 17.7 0.00 0.00 0.00 40 1009.6
20260504202049 24 140 3.2 11.3 0.00 0.00 0.00 39 1009.8
20260504201601 23 301 3.2 12.9 0.00 0.00 0.00 39 1009.6
20260504201052 23 303 1.6 16.1 0.00 0.00 0.00 39 1009.9
20260504200550 23 167 3.2 16.1 0.00 0.00 0.00 38 1010.0
20260504200054 23 274 4.8 16.1 0.00 0.00 0.00 38 1010.0
20260504195549 23 88 3.2 16.1 0.00 0.00 0.00 38 1010.0
20260504195049 23 294 4.8 16.1 0.00 0.00 0.00 40 1010.3
20260504194553 24 140 3.2 12.9 0.00 0.00 0.00 39 1010.3
20260504194050 23 148 3.2 12.9 0.00 0.00 0.00 38 1010.3
20260504193550 23 333 3.2 14.5 0.00 0.00 0.00 38 1010.3
20260504193056 23 95 4.8 14.5 0.00 0.00 0.00 38 1010.5
20260504192549 23 298 3.2 14.5 0.00 0.00 0.00 41 1010.6
20260504192052 23 6 4.8 19.3 0.00 0.00 0.00 39 1010.7
20260504191602 23 293 3.2 19.3 0.00 0.00 0.00 38 1010.7
20260504191049 23 317 3.2 17.7 0.00 0.00 0.00 40 1010.7
20260504190549 23 254 3.2 16.1 0.00 0.00 0.00 38 1010.8
20260504190112 23 240 3.2 16.1 0.00 0.00 0.00 40 1010.9
20260504185549 23 321 4.8 11.3 0.00 0.00 0.00 37 1011.0
20260504185049 23 343 3.2 11.3 0.00 0.00 0.00 40 1011.1
20260504184557 23 317 1.6 17.7 0.00 0.00 0.00 37 1011.1
20260504184050 23 328 3.2 19.3 0.00 0.00 0.00 41 1011.2
20260504183550 23 185 8.0 19.3 0.00 0.00 0.00 38 1011.3
20260504183105 23 219 3.2 16.1 0.00 0.00 0.00 37 1011.3
20260504182551 22 289 3.2 20.9 0.00 0.00 0.00 41 1011.4
20260504182052 22 155 8.0 20.9 0.00 0.00 0.00 36 1011.4
20260504181558 23 300 4.8 17.7 0.00 0.00 0.00 37 1011.5
20260504181049 23 332 3.2 11.3 0.00 0.00 0.00 38 1011.4
20260504180550 23 311 4.8 11.3 0.00 0.00 0.00 37 1011.5
20260504180112 23 291 1.6 9.7 0.00 0.00 0.00 38 1011.6